Regional Weather Roundup
Issued by NWS Wilmington, NC

Home | Current Version | Previous Version | Text Only | Print | Product List | Glossary On
Versions: 1 2 3 4 5 6 7 8 9 10 11 12 13 14 15 16 17 18 19 20 21 22 23 24 25 26 27 28 29 30 31 32 33 34 35 36 37 38 39 40 41 42 43 44 45 46 47 48 49 50
000
ASUS42 KILM 031913
RWRILM
RWRILM
REGIONAL HOURLY WEATHER ROUNDUP
NATIONAL WEATHER SERVICE WILMINGTON NC
300 PM EDT SUN MAY 03 2015

NOTE: "FAIR" INDICATES FEW OR NO CLOUDS BELOW 12,000 FEET WITH NO
SIGNIFICANT WEATHER AND/OR OBSTRUCTIONS TO VISIBILITY.

...............WFO WILMINGTON COUNTY WARNING AREA...............

......COASTAL NC AND SC COUNTIES......

CITY           SKY/WX    TMP DP  RH WIND       PRES   REMARKS
WILMINGTON     SUNNY     77  41  27 S9        30.19S
N MYRTLE BEACH SUNNY     73  59  61 S10       30.20S
MYRTLE BEACH   MOSUNNY   73  61  64 SE14      30.22S

......INLAND NC AND SC COUNTIES.......

CITY           SKY/WX    TMP DP  RH WIND       PRES   REMARKS
LUMBERTON      MOSUNNY   80  45  28 E8        30.16F
ELIZABETHTOWN  SUNNY     78  41  25 S3        30.17F
WHITEVILLE     SUNNY     78  38  23 CALM      30.17F
FLORENCE       SUNNY     80  43  26 S8        30.17F
DARLINGTON     MOSUNNY   81  41  24 W5        30.18F

....................REST OF NORTH CAROLINA......................

.........EASTERN NC.........

CITY           SKY/WX    TMP DP  RH WIND       PRES   REMARKS
CAPE HATTERAS  SUNNY     72  52  49 VRB5      30.18F
JACKSONVILLE   SUNNY     79  39  24 SW6       30.18F
MOREHEAD CITY  FAIR      74  47  38 SW13      30.18F
KENANSVILLE    SUNNY     77  38  24 SW5       30.18F
NEW BERN       MOSUNNY   78  42  27 E7        30.18F
ELIZABETH CITY PTSUNNY   75  48  38 SE7       30.15F

.........CENTRAL NC.........

CITY           SKY/WX    TMP DP  RH WIND       PRES   REMARKS
RALEIGH DURHAM PTSUNNY   76  43  30 CALM      30.17F
ROCKY MOUNT    MOSUNNY   76  44  32 S6        30.17S
ROANOKE RAPIDS NOT AVBL
FAYETTEVILLE   PTSUNNY   78  42  27 VRB5      30.16F
HOFFMAN        PTSUNNY   77  41  28 NE2       30.20F

.........WESTERN NC.........

CITY           SKY/WX    TMP DP  RH WIND       PRES   REMARKS
CHARLOTTE      PTSUNNY   78  44  29 VRB7      30.17F
GREENSBORO     PTSUNNY   75  42  30 S3        30.16F
HICKORY        NOT AVBL
BOONE          NOT AVBL
ASHEVILLE      NOT AVBL

.....................REST OF SOUTH CAROLINA.....................

.........EASTERN SC.........

CITY           SKY/WX    TMP DP  RH WIND       PRES   REMARKS
CHARLESTON     MOSUNNY   78  47  33 CALM      30.17F
BEAUFORT MCAS  SUNNY     80  50  34 E5        30.18F
HILTON HEAD    MOSUNNY   77  59  53 SE6       30.20S

.........CENTRAL SC.........

CITY           SKY/WX    TMP DP  RH WIND       PRES   REMARKS
COLUMBIA       MOSUNNY   79  46  31 S5        30.16F
ORANGEBURG     PTSUNNY   80  48  32 CALM      30.17F
SUMTER SHAW    SUNNY     80  45  29 VRB1      30.16S

.........WESTERN SC.........

CITY           SKY/WX    TMP DP  RH WIND       PRES   REMARKS
GREENVILLE     NOT AVBL
ROCK HILL      SUNNY     77  46  33 VRB3      30.17F
ANDERSON       SUNNY     79  49  34 SW12      30.17F
CLEMSON        NOT AVBL
GREENWOOD      MOSUNNY   77  49  37 S8        30.18F


...................COASTAL AND OFFSHORE REPORTS..................

................LOCAL PIERS AND NC RESERVE................


STATION/POSITION TIME  SKY/WX   TEMP    WIND        PRES    VSBY
                                AIR SEA DIR/SP/G
                 (UTC)          (F)     (DEG/KT/KT) (MB)    (MI)
JOHNY MRCER PIER 1818                   170/  8/  9 1022.1F
NC RESRV MASNBRO NOT AVBL
OCEAN CREST PIER 1902            70 70  120/  8/  9 1021.9F
SPRINGMAID  PIER 1800            70 68  120/  9/ 10 1022.7F


................COASTAL AND OFFSHORE BUOYS................


STATION/POSITION TIME  SKY/WX   TEMP    WIND        PRES    VSBY
                                AIR SEA DIR/SP/G
                 (UTC)          (F)     (DEG/KT/KT) (MB)    (MI)
DIMNDSHOAL 41025 1850            63 62  260/  6/  8 1022.3F
WVE H/P(F/S)=  5/11 WND WVE H/P(F/S)=  2/ 4 SWL H/P/D(F/S/D)=  5/ 50/11

CAPE LOOKOUT     1900            71     230/ 10/ 12 1021.9F
ONSLOW BAY 41036 NOT AVBL
5 WRITEBCH 41038 1808            69 67  190/  6/  8 1022.9F
MASONBORO  41110 1819               69                N/A
WVE H/P(F/S)=  2/13 WND WVE H/P(F/S)=  2/ 9 SWL H/P/D(F/S/D)=  2/100/13

WILM HARBR 41108 1811               71                N/A
WVE H/P(F/S)=  2/13 WND WVE H/P(F/S)=  2/ 6 SWL H/P/D(F/S/D)=  2/130/13

27WRITEBCH 41037 1800            70 72   CALM  /  2   N/A
FRYING PAN 41013 1850            72 75   CALM  /  2 1023.6F
WVE H/P(F/S)=  4/10 WND WVE H/P(F/S)=  2/ 4 SWL H/P/D(F/S/D)=  3/110/10

SUNST NRSH 41024 1808            69     170/  8/ 10 1022.7F
CAPRS NRSH 41029 1808            69     170/  8/  8 1022.5F
EDISTO     41004 1850            70 76  320/  2/  4 1022.5F
WVE H/P(F/S)=  3/11 SWL H/P/D(F/S/D)=  3/11



..........OFFSHORE BUOYS BEYOND 100 NM OFFSHORE...........
.....IN A TRIANGLE---HAT TO BERMUDA TO BAHAMAS TO HAT.....


STATION/POSITION TIME  SKY/WX   TEMP    WIND        PRES    VSBY
                                AIR SEA DIR/SP/G
                 (UTC)          (F)     (DEG/KT/KT) (MB)    (MI)
150E HAT   41001 NOT AVBL
W BERMUDA  41048 1850            68 70  340/ 14/ 17 1019.4R
WVE H/P(F/S)= 10/10 WND WVE H/P(F/S)=  5/ 6 SWL H/P/D(F/S/D)=  8/ 10/10

ATLANTIC S 41049 1850            74 77  310/  8/ 10 1017.7S
WVE H/P(F/S)=  6/ 6 WND WVE H/P(F/S)=  2/ 4 SWL H/P/D(F/S/D)=  5/220/ 6

E BAHAMAS  41046 1850            76 80   40/ 14/ 16 1016.3F
WVE H/P(F/S)=  6/ 8 WND WVE H/P(F/S)=  3/ 6 SWL H/P/D(F/S/D)=  3/320/ 8

NE BAHAMAS 41047 1850            72 76   20/ 10/ 12 1018.9S
WVE H/P(F/S)=  9/10 WND WVE H/P(F/S)=  2/ 4 SWL H/P/D(F/S/D)= 10/350/10

120E CANVRL41010 1820            73 78   50/ 10/ 14 1022.2F

END



USA.gov is the U.S. government's official web portal to all federal, state and local government web resources and services.